[[{"header":{"parameterUnit":"m.s-1","parameterCategory":1,"la1":30.2991,"la2":30.254,"lo1":-89.0895,"lo2":-89.0444,"dy":0.0017,"dx":0.0017,"nx":28,"ny":28,"refTime":"2023-11-05T09:00:00:Z","depth":0,"parameterNumber":2,"parameterNumberName":"U-component_of_WINDS"},"data":[0,0,0,0,0,0,0,0,0,0,0,0,0,0,0,0,0,0,0,0,0,0,0,0,0,0,0,0,0,0,0,0,0,0,0,0,0,0,0,0,0,0,0,0,0,0,0,0,0,0,0,0,0,0,0,0,0,0,0.6977,0.6978,0,0.7067,0.7068,0.7069,0.7066,0.7065,0.7063,0.7062,0.7159,0.7162,0.7166,0,0,0,0,0,0,0,0,0,0,0,0,0,0.6806,0.6809,0.6977,0.6978,0.6979,0.7067,0.7068,0.7069,0.7066,0.7065,0.7063,0.7062,0.7157,0.7162,0.7166,0,0,0,0,0,0,0,0,0,0,0,0,0,0.6887,0.681,0.6977,0.6988,0.699,0.7066,0.7068,0.7069,0.7067,0.7065,0.7063,0.7061,0.7156,0.7161,0.7167,0.7239,0,0,0.7184,0.7186,0,0,0,0,0,0,0,0,0.6882,0.6893,0.6985,0.6987,0.699,0.7053,0.7043,0.7126,0.7067,0.7038,0.7062,0.706,0.7125,0.7133,0.7154,0.7244,0.7248,0.7184,0.7188,0.719,0.7192,0,0,0,0,0,0,0,0.6876,0.6889,0.7013,0.6987,0.6989,0.699,0.6999,0.7059,0.7091,0.704,0.704,0.705,0.7126,0.7149,0.7157,0.7249,0.7184,0.7189,0.7193,0.7195,0.7401,0.7403,0,0,0,0,0,0,0.6868,0.6884,0.701,0.7015,0.693,0.6994,0.7005,0.7035,0.709,0.7097,0.7052,0.705,0.714,0.715,0.716,0.7248,0.719,0.7195,0.7199,0.7399,0.7402,0.7404,0,0,0,0,0,0,0.6864,0.6879,0.7006,0.695,0.6966,0.6999,0.7033,0.7038,0.706,0.7099,0.7105,0.7069,0.7139,0.7152,0.7219,0.7251,0.7198,0.7203,0.7396,0.74,0.7403,0.7423,0,0,0,0,0,0,0.6859,0.6878,0.6905,0.695,0.6969,0.7063,0.7035,0.7041,0.7069,0.7068,0.7117,0.7124,0.7139,0.7211,0.7224,0.7258,0.7207,0.7394,0.7398,0.7402,0.742,0.7427,0.7433,0,0,0,0,0,0.6853,0.6908,0.6906,0.6921,0.7003,0.7064,0.7075,0.709,0.7072,0.71,0.7125,0.7122,0.7245,0.7217,0.7233,0.7268,0.7392,0.7397,0.7401,0.7417,0.7426,0.7433,0,0,0,0,0,0,0.6867,0.6914,0.6913,0.6984,0.702,0.7064,0.7099,0.7099,0.7142,0.7139,0.7157,0.7168,0.7235,0.7259,0.7227,0.7341,0.7316,0.7324,0.7323,0.7331,0.7337,0.733,0.7212,0,0,0,0,0,0.6878,0.6923,0.6962,0.7021,0.7039,0.7066,0.7093,0.7102,0.714,0.7156,0.7186,0.7225,0.7272,0.7303,0.7349,0.7423,0.7434,0.7455,0.7462,0.7467,0.7473,0.7514,0.7524,0.7419,0.7419,0.7419,0,0,0.6902,0.6934,0.6961,0.7025,0.7054,0.71,0.7079,0.713,0.7164,0.7164,0.7228,0.7252,0.7296,0.7367,0.7399,0.7388,0.7504,0.7473,0.7476,0.7481,0.752,0.753,0.7538,0.7423,0.7422,0.7422,0,0,0.697,0.6998,0.7049,0.7078,0.7122,0.7139,0.7151,0.7195,0.721,0.7274,0.7275,0.7317,0.7399,0.743,0.7456,0.7534,0.7533,0.7549,0.7582,0.7621,0.763,0.7637,0.7664,0.7674,0.7555,0.7555,0.7556,0,0.6994,0.7063,0.7077,0.7127,0.7155,0.7155,0.7208,0.7236,0.7293,0.7312,0.7299,0.74,0.743,0.7507,0.7526,0.7548,0.7563,0.7543,0.7627,0.7635,0.7642,0.7668,0.7678,0.7557,0.7557,0.7557,0.7557,0,0.7091,0.7139,0.7176,0.7228,0.7261,0.7312,0.7334,0.7365,0.7371,0.739,0.7455,0.7491,0.7543,0.7562,0.7569,0.7641,0.7632,0.7623,0.7599,0.7653,0.7678,0.7688,0.7559,0.7559,0.7558,0.7558,0,0,0.7171,0.7229,0.7242,0.7266,0.7313,0.7351,0.7402,0.7452,0.7478,0.7517,0.7561,0.7629,0.762,0.765,0.766,0.7694,0.7753,0.768,0.7682,0.7692,0.7833,0.784,0.7851,0.7752,0.7754,0.7756,0.7829,0,0.7242,0.7332,0.7345,0.7425,0.7469,0.7469,0.7514,0.7548,0.7567,0.7608,0.763,0.7677,0.7662,0.768,0.7714,0.7738,0.7781,0.7733,0.7793,0.7795,0.7782,0.7865,0.7872,0.794,0.7839,0.7841,0.7842,0,0.7339,0.7378,0.7461,0.7501,0.7521,0.756,0.7606,0.7645,0.7684,0.7696,0.7728,0.7734,0.7788,0.7761,0.7835,0.7802,0.7828,0.7843,0.7846,0.7853,0.7822,0.7873,0.7962,0.7972,0.7858,0.7857,0.7855,0,0.7387,0.7462,0.7521,0.7541,0.759,0.7618,0.7639,0.7676,0.7705,0.7746,0.7764,0.7812,0.7837,0.7874,0.7892,0.7871,0.7965,0.794,0.7976,0.7976,0.7996,0.7995,0.8091,0.8013,0.8013,0.8013,0.8013,0,0.7466,0.7517,0.7543,0.758,0.7637,0.7651,0.7708,0.7729,0.7762,0.7803,0.7806,0.7845,0.7867,0.7909,0.7924,0.7983,0.7995,0.8005,0.8009,0.8005,0.8003,0.8022,0.8017,0.8016,0.8015,0.8014,0.8014,0,0.753,0.755,0.7614,0.7654,0.7666,0.7706,0.7741,0.7776,0.7794,0.7846,0.7859,0.7888,0.7938,0.7959,0.8021,0.8031,0.8098,0.8098,0.8084,0.8085,0.812,0.8116,0.8231,0.8247,0.8159,0.816,0.8161,0,0.7579,0.7618,0.7662,0.7689,0.7711,0.7754,0.7783,0.7799,0.7829,0.7876,0.7906,0.7955,0.7995,0.8074,0.8101,0.8148,0.8149,0.8186,0.8156,0.8151,0.8149,0.8146,0.815,0.8192,0.8193,0.8193,0.8194,0,0.7663,0.7671,0.7711,0.7755,0.7789,0.7825,0.786,0.7882,0.7904,0.7937,0.7987,0.8018,0.8079,0.8128,0.8176,0.82,0.8201,0.8203,0.8214,0.821,0.82,0.8205,0.8099,0.82,0.82,0.8199,0.8199,0.8198,0.7721,0.7755,0.7791,0.7836,0.7863,0.7896,0.7931,0.7953,0.7994,0.8044,0.8052,0.8104,0.8142,0.8206,0.8231,0.8274,0.8265,0.828,0.8284,0.8288,0.8289,0.8193,0.8283,0.8282,0.8282,0.8282,0.8282,0,0.7805,0.7828,0.7869,0.7917,0.7952,0.7948,0.7986,0.8016,0.8062,0.8097,0.8135,0.8192,0.8239,0.8269,0.8317,0.8345,0.8346,0.8356,0.8354,0.836,0.8295,0.8281,0.8354,0.8354,0.8354,0.8354,0.8354,0.8354,0.7853,0.791,0.7922,0.7992,0.8015,0.8066,0.8088,0.8118,0.8145,0.8207,0.8246,0.8265,0.8297,0.8347,0.839,0.8397,0.8415,0.8425,0.8433,0.8372,0.8364,0.8357,0.8344,0.8429,0.8429,0.8493,0.8494,0.8494]},{"header":{"parameterUnit":"m.s-1","parameterCategory":1,"la1":30.2991,"la2":30.254,"lo1":-89.0895,"lo2":-89.0444,"dy":0.0017,"dx":0.0017,"nx":28,"ny":28,"refTime":"2023-11-05T09:00:00:Z","depth":0,"parameterNumber":3,"parameterNumberName":"V-component_of_WINDS"},"data":[0,0,0,0,0,0,0,0,0,0,0,0,0,0,0,0,0,0,0,0,0,0,0,0,0,0,0,0,0,0,0,0,0,0,0,0,0,0,0,0,0,0,0,0,0,0,0,0,0,0,0,0,0,0,0,0,0,0,1.1624,1.1623,0,1.1588,1.1588,1.1587,1.151,1.1508,1.1507,1.1505,1.1468,1.1468,1.1469,0,0,0,0,0,0,0,0,0,0,0,0,0,1.1621,1.1622,1.1624,1.1623,1.1623,1.1588,1.1588,1.1587,1.151,1.1508,1.1507,1.1505,1.1468,1.1468,1.1469,0,0,0,0,0,0,0,0,0,0,0,0,0,1.1608,1.1622,1.1624,1.158,1.1576,1.1588,1.1588,1.1587,1.1511,1.1508,1.1506,1.1504,1.1467,1.1468,1.1469,1.152,0,0,1.1471,1.1471,0,0,0,0,0,0,0,0,1.1609,1.1608,1.1587,1.1583,1.1579,1.1551,1.1573,1.1565,1.1511,1.1536,1.1505,1.1503,1.1497,1.1495,1.1494,1.1518,1.1517,1.1471,1.1471,1.1472,1.1472,0,0,0,0,0,0,0,1.161,1.1609,1.161,1.1587,1.1582,1.1561,1.1557,1.1571,1.153,1.1533,1.1528,1.1524,1.1495,1.1493,1.1492,1.1516,1.1471,1.1472,1.1472,1.1472,1.1575,1.1577,0,0,0,0,0,0,1.1617,1.161,1.1611,1.1608,1.1588,1.1563,1.1558,1.1562,1.153,1.1522,1.1526,1.1521,1.1493,1.1492,1.1491,1.1544,1.1472,1.1472,1.1473,1.1573,1.1576,1.1578,0,0,0,0,0,0,1.1618,1.1618,1.1612,1.1608,1.1605,1.1566,1.1571,1.1563,1.1561,1.1525,1.1517,1.1533,1.1491,1.149,1.1512,1.1542,1.1473,1.1473,1.157,1.1574,1.1577,1.1654,0,0,0,0,0,0,1.1618,1.1619,1.1639,1.1609,1.1606,1.1635,1.1573,1.1564,1.1563,1.1556,1.1529,1.1522,1.149,1.1512,1.1513,1.1542,1.1474,1.1567,1.1572,1.1576,1.1649,1.166,1.1669,0,0,0,0,0,1.1618,1.1663,1.164,1.1641,1.1631,1.1637,1.1636,1.1598,1.1566,1.1584,1.156,1.1523,1.1539,1.1515,1.1515,1.1545,1.1565,1.157,1.1575,1.1644,1.1658,1.1669,0,0,0,0,0,0,1.1698,1.1658,1.1633,1.167,1.1657,1.1624,1.1647,1.1614,1.1611,1.1604,1.1557,1.1551,1.1579,1.1565,1.1538,1.159,1.1546,1.1551,1.1598,1.161,1.1621,1.1622,1.1474,0,0,0,0,0,1.172,1.1729,1.1694,1.173,1.1725,1.1687,1.1689,1.1661,1.1646,1.164,1.1618,1.1604,1.1606,1.1608,1.1608,1.1647,1.1638,1.1668,1.1678,1.1687,1.1691,1.1706,1.1717,1.1595,1.1595,1.1595,0,0,1.1765,1.1744,1.1754,1.1745,1.1733,1.1741,1.1684,1.1697,1.1702,1.1642,1.166,1.1644,1.1625,1.1655,1.1667,1.1644,1.1723,1.1693,1.1701,1.17,1.1712,1.1724,1.1734,1.1599,1.1598,1.1598,0,0,1.1851,1.1838,1.1864,1.1852,1.1833,1.1807,1.1814,1.1785,1.1771,1.1789,1.1743,1.1748,1.1754,1.1741,1.1735,1.1813,1.1777,1.1815,1.1867,1.1882,1.1892,1.19,1.1923,1.1933,1.182,1.182,1.182,0,1.1909,1.1921,1.1882,1.1896,1.1892,1.1838,1.1862,1.1853,1.1835,1.1832,1.1807,1.1809,1.1794,1.1817,1.1836,1.1835,1.1837,1.1816,1.1894,1.1902,1.1909,1.193,1.194,1.1824,1.1824,1.1823,1.1823,0,1.1991,1.2001,1.2024,1.2006,1.2005,1.2025,1.1986,1.199,1.1962,1.1938,1.1954,1.1933,1.1926,1.193,1.1904,1.1949,1.1934,1.1903,1.1856,1.1925,1.1944,1.1953,1.1831,1.1829,1.1828,1.1827,0,0,1.2126,1.2084,1.2093,1.2082,1.2056,1.2062,1.2078,1.207,1.2072,1.2062,1.2071,1.2076,1.2044,1.2038,1.2009,1.2023,1.208,1.1989,1.1987,1.2002,1.2123,1.2144,1.2155,1.2057,1.2059,1.206,1.2123,0,1.2202,1.2226,1.219,1.2222,1.2227,1.2176,1.2189,1.2173,1.2151,1.2152,1.2127,1.2129,1.2091,1.2085,1.2097,1.2071,1.2103,1.2066,1.2062,1.2063,1.2064,1.2166,1.2189,1.2249,1.2131,1.2132,1.2133,0,1.2294,1.2286,1.2318,1.2287,1.2288,1.23,1.2288,1.229,1.227,1.2253,1.2245,1.221,1.2221,1.2179,1.2191,1.2167,1.2163,1.215,1.2151,1.2146,1.2099,1.2159,1.2268,1.2276,1.2146,1.2145,1.2144,0,1.2382,1.238,1.2398,1.2391,1.2356,1.2365,1.2351,1.2329,1.2325,1.2315,1.2311,1.2303,1.2297,1.229,1.2253,1.2227,1.2268,1.2224,1.2251,1.2251,1.2259,1.2258,1.2365,1.2264,1.2264,1.2264,1.2264,0,1.2469,1.249,1.2436,1.2447,1.2468,1.2425,1.2446,1.2426,1.2407,1.2411,1.2367,1.2372,1.2324,1.2323,1.2294,1.2306,1.2305,1.2289,1.228,1.229,1.2292,1.2284,1.2278,1.2266,1.2266,1.2265,1.2265,0,1.257,1.2536,1.2551,1.2516,1.2507,1.2524,1.2492,1.2499,1.2474,1.248,1.2479,1.2439,1.2435,1.2398,1.2386,1.2366,1.2387,1.2373,1.2394,1.2387,1.2414,1.241,1.2517,1.2526,1.2424,1.2425,1.2426,0,1.2625,1.264,1.2605,1.2605,1.2592,1.2593,1.2588,1.2546,1.2543,1.252,1.2529,1.2521,1.2512,1.2508,1.2477,1.2466,1.2448,1.2486,1.2447,1.2455,1.2443,1.2441,1.244,1.2494,1.2495,1.2496,1.2497,0,1.2726,1.2707,1.2703,1.2691,1.2687,1.2676,1.2662,1.2664,1.2618,1.2616,1.2611,1.2604,1.2591,1.2582,1.2566,1.2549,1.2514,1.251,1.2515,1.2523,1.2533,1.2523,1.2412,1.2507,1.2506,1.2505,1.2505,1.2504,1.2802,1.281,1.2787,1.2782,1.2767,1.2755,1.2758,1.2733,1.2728,1.2713,1.2689,1.2687,1.2663,1.2637,1.2624,1.262,1.2599,1.2608,1.2609,1.261,1.2614,1.2537,1.2617,1.2617,1.2616,1.2616,1.2616,0,1.2896,1.2877,1.2874,1.2855,1.285,1.2819,1.2801,1.2799,1.2797,1.2779,1.2771,1.2763,1.2754,1.2722,1.2708,1.2711,1.2694,1.2709,1.2706,1.2702,1.2635,1.263,1.2722,1.2722,1.2722,1.2722,1.2722,1.2722,1.2944,1.2955,1.2933,1.2936,1.2917,1.2914,1.2906,1.2893,1.2877,1.287,1.2862,1.2842,1.2816,1.2801,1.279,1.278,1.2776,1.2795,1.278,1.2717,1.2707,1.2697,1.2692,1.2795,1.2795,1.2845,1.2846,1.2846]}]]